Location: Viterbo
(42.4170°N, 12.1000°E)
Time: 20:08:42
(UTC+02:00)

ISS - Visible Passes

Search period start: 12 October 2024 00:00
Search period end: 22 October 2024 00:00
Orbit: 411 x 424 km, 51.6° (Epoch: 12 October)

Date Brightness Start Highest point End Pass type
(mag) Time Alt. Az. Time Alt. Az. Time Alt. Az.
16 Oct -1.0 06:21:39 10° S 06:23:59 18° SE 06:26:20 10° E visible
17 Oct -0.6 05:35:10 10° SE 05:35:49 10° SE 05:36:26 10° ESE visible
18 Oct -3.0 06:20:28 10° SW 06:23:37 49° SE 06:26:51 10° ENE visible
19 Oct -2.1 05:34:37 26° SSE 05:35:13 28° SE 05:38:08 10° ENE visible
20 Oct -0.4 04:48:33 12° E 04:48:33 12° E 04:49:02 10° E visible
20 Oct -3.7 06:21:28 25° WSW 06:23:14 62° NNW 06:26:32 10° NE visible
21 Oct -3.2 05:35:12 56° ENE 05:35:12 56° ENE 05:37:55 10° ENE visible
